YAOGAN-4

Last updated on Sat Sep 05 2026 00:02:44 GMT+0000 (Coordinated Universal Time)

1 33446U 08061A 26247.56731406 .00000463 00000+0 63061-4 0 9990 2 33446 97.9317 180.5010 0014422 166.3279 193.8328 14.83327551957431
UTC large
Height (km)
Speed (km/s)
/
Latitude / Longitude
Inclination (degrees)
Orbital Period (minutes)
Azimuth
Elevation
Range (km)
Doppler Factor

Next 0 passes for location: London (51.5072 / 0.1276)

No passes found over London.
YAOGAN-4